"Sample Date","Sample Time","Sensor Name","Sample Value","Units","Flow Rate","Sample Interval","Sample Volume","Laser Status","Number Channels","Micron Size 0","Counts/Channel 0","Micron Size 1","Counts/Channel 1","Micron Size 2","Counts/Channel 2","Micron Size 3","Counts/Channel 3","Micron Size 4","Counts/Channel 4","Micron Size 5","Counts/Channel 5","Micron Size 6","Counts/Channel 6","Micron Size 7","Counts/Channel 7","Micron Size 8","Counts/Channel 8","Micron Size 9","Counts/Channel 9","Micron Size 10","Counts/Channel 10","Micron Size 11","Counts/Channel 11","Micron Size 12","Counts/Channel 12","Micron Size 13","Counts/Channel 13","Micron Size 14","Counts/Channel 14","Micron Size 15","Counts/Channel 15","Micron Size 16","Counts/Channel 16","Micron Size 17","Counts/Channel 17","Micron Size 18","Counts/Channel 18","Micron Size 19","Counts/Channel 19","Micron Size 20","Counts/Channel 20","Micron Size 21","Counts/Channel 21","Micron Size 22","Counts/Channel 22","Micron Size 23","Counts/Channel 23","Micron Size 24","Counts/Channel 24","Micron Size 25","Counts/Channel 25","Micron Size 26","Counts/Channel 26","Micron Size 27","Counts/Channel 27","Micron Size 28","Counts/Channel 28","Micron Size 29","Counts/Channel 29","Micron Size 30","Counts/Channel 30","Micron Size 31","Counts/Channel 31"
"07/12/06","11:00:01","AMMA06",78124.000,"cc",28329.979,6.00,2832.998,1,6,0.100,36543.000,0.200,33231.000,0.300,7380.000,0.500,666.000,1.000,304.000,5.000,0
"07/12/06","11:00:07","AMMA06",82142.000,"cc",28294.609,6.00,2829.461,1,6,0.100,37841.000,0.200,34205.000,0.300,8340.000,0.500,1156.000,1.000,600.000,5.000,0
"07/12/06","11:00:13","AMMA06",82454.000,"cc",28295.934,6.00,2829.594,1,6,0.100,37873.000,0.200,34354.000,0.300,8260.000,0.500,1257.000,1.000,710.000,5.000,0
"07/12/06","11:00:19","AMMA06",80573.000,"cc",28299.539,6.00,2829.954,1,6,0.100,37537.000,0.200,33736.000,0.300,7812.000,0.500,956.000,1.000,532.000,5.000,0
"07/12/06","11:00:25","AMMA06",79002.000,"cc",28336.045,6.00,2833.605,1,6,0.100,36887.000,0.200,33594.000,0.300,7506.000,0.500,676.000,1.000,339.000,5.000,0
"07/12/06","11:00:31","AMMA06",78274.000,"cc",28333.934,6.00,2833.394,1,6,0.100,36903.000,0.200,33554.000,0.300,7057.000,0.500,506.000,1.000,253.000,5.000,1.000
"07/12/06","11:00:37","AMMA06",77540.000,"cc",28305.145,6.00,2830.515,1,6,0.100,36564.000,0.200,33205.000,0.300,7153.000,0.500,445.000,1.000,173.000,5.000,0
"07/12/06","11:00:43","AMMA06",77793.000,"cc",28362.543,6.00,2836.254,1,6,0.100,36727.000,0.200,33248.000,0.300,7142.000,0.500,477.000,1.000,199.000,5.000,0
"07/12/06","11:00:49","AMMA06",77510.000,"cc",28281.580,6.00,2828.158,1,6,0.100,36732.000,0.200,33025.000,0.300,7084.000,0.500,475.000,1.000,194.000,5.000,0
"07/12/06","11:00:55","AMMA06",79833.000,"cc",28292.397,6.00,2829.240,1,6,0.100,37992.000,0.200,33588.000,0.300,7370.000,0.500,603.000,1.000,280.000,5.000,0
"07/12/06","11:01:01","AMMA06",80035.000,"cc",28359.404,6.00,2835.941,1,6,0.100,38644.000,0.200,33561.000,0.300,7104.000,0.500,485.000,1.000,241.000,5.000,0
"07/12/06","11:01:07","AMMA06",78047.000,"cc",28346.492,6.00,2834.649,1,6,0.100,37288.000,0.200,33074.000,0.300,7075.000,0.500,449.000,1.000,161.000,5.000,0
"07/12/06","11:01:13","AMMA06",79194.000,"cc",28301.836,6.00,2830.184,1,6,0.100,38387.000,0.200,33202.000,0.300,7018.000,0.500,417.000,1.000,170.000,5.000,0
"07/12/06","11:01:19","AMMA06",77826.000,"cc",28316.502,6.00,2831.650,1,6,0.100,37101.000,0.200,32863.000,0.300,7098.000,0.500,543.000,1.000,221.000,5.000,0
"07/12/06","11:01:25","AMMA06",79939.000,"cc",28308.549,6.00,2830.855,1,6,0.100,38035.000,0.200,33359.000,0.300,7384.000,0.500,761.000,1.000,400.000,5.000,0
"07/12/06","11:01:31","AMMA06",80209.000,"cc",28286.772,6.00,2828.677,1,6,0.100,38458.000,0.200,33251.000,0.300,7435.000,0.500,724.000,1.000,341.000,5.000,0
"07/12/06","11:01:37","AMMA06",80219.000,"cc",28281.660,6.00,2828.166,1,6,0.100,38395.000,0.200,33123.000,0.300,7571.000,0.500,800.000,1.000,330.000,5.000,0
"07/12/06","11:01:43","AMMA06",77986.000,"cc",28339.127,6.00,2833.913,1,6,0.100,37582.000,0.200,32680.000,0.300,7016.000,0.500,513.000,1.000,195.000,5.000,0
"07/12/06","11:01:49","AMMA06",78602.000,"cc",28305.537,6.00,2830.554,1,6,0.100,37568.000,0.200,33197.000,0.300,6996.000,0.500,600.000,1.000,241.000,5.000,0
"07/12/06","11:01:55","AMMA06",78155.000,"cc",28345.857,6.00,2834.586,1,6,0.100,37498.000,0.200,32933.000,0.300,7065.000,0.500,450.000,1.000,209.000,5.000,0
"07/12/06","11:02:01","AMMA06",78831.000,"cc",28358.272,6.00,2835.827,1,6,0.100,37970.000,0.200,32974.000,0.300,7071.000,0.500,592.000,1.000,224.000,5.000,0
"07/12/06","11:02:07","AMMA06",77637.000,"cc",28286.234,6.00,2828.624,1,6,0.100,37488.000,0.200,32628.000,0.300,6904.000,0.500,434.000,1.000,183.000,5.000,0
"07/12/06","11:02:13","AMMA06",78493.000,"cc",28323.145,6.00,2832.315,1,6,0.100,37958.000,0.200,32867.000,0.300,6889.000,0.500,537.000,1.000,242.000,5.000,0
"07/12/06","11:02:19","AMMA06",76874.000,"cc",28282.318,6.00,2828.232,1,6,0.100,37182.000,0.200,32307.000,0.300,6874.000,0.500,375.000,1.000,136.000,5.000,0
"07/12/06","11:02:25","AMMA06",77962.000,"cc",28334.756,6.00,2833.476,1,6,0.100,37675.000,0.200,32558.000,0.300,7040.000,0.500,501.000,1.000,188.000,5.000,0
"07/12/06","11:02:31","AMMA06",78568.000,"cc",28325.639,6.00,2832.564,1,6,0.100,37886.000,0.200,32621.000,0.300,7154.000,0.500,624.000,1.000,283.000,5.000,0
"07/12/06","11:02:37","AMMA06",81894.000,"cc",28304.932,6.00,2830.493,1,6,0.100,38874.000,0.200,33553.000,0.300,7980.000,0.500,1035.000,1.000,452.000,5.000,0
"07/12/06","11:02:43","AMMA06",79885.000,"cc",28334.703,6.00,2833.471,1,6,0.100,38215.000,0.200,32914.000,0.300,7550.000,0.500,858.000,1.000,348.000,5.000,0
"07/12/06","11:02:49","AMMA06",77560.000,"cc",28344.576,6.00,2834.458,1,6,0.100,37525.000,0.200,32532.000,0.300,6865.000,0.500,450.000,1.000,188.000,5.000,0
"07/12/06","11:02:55","AMMA06",77407.000,"cc",28302.723,6.00,2830.273,1,6,0.100,37644.000,0.200,32255.000,0.300,6865.000,0.500,427.000,1.000,216.000,5.000,0
"07/12/06","11:03:01","AMMA06",77343.000,"cc",28337.787,6.00,2833.779,1,6,0.100,37235.000,0.200,32677.000,0.300,6765.000,0.500,493.000,1.000,173.000,5.000,0
"07/12/06","11:03:07","AMMA06",77272.000,"cc",28320.551,6.00,2832.055,1,6,0.100,37223.000,0.200,32483.000,0.300,6919.000,0.500,462.000,1.000,185.000,5.000,0
"07/12/06","11:03:13","AMMA06",77426.000,"cc",28318.613,6.00,2831.862,1,6,0.100,36944.000,0.200,32961.000,0.300,6982.000,0.500,376.000,1.000,163.000,5.000,0
"07/12/06","11:03:19","AMMA06",77391.000,"cc",28292.158,6.00,2829.216,1,6,0.100,36992.000,0.200,32875.000,0.300,6938.000,0.500,414.000,1.000,172.000,5.000,0
"07/12/06","11:03:25","AMMA06",77559.000,"cc",28340.186,6.00,2834.019,1,6,0.100,36748.000,0.200,33247.000,0.300,6912.000,0.500,446.000,1.000,206.000,5.000,0
"07/12/06","11:03:31","AMMA06",77112.000,"cc",28290.336,6.00,2829.034,1,6,0.100,36783.000,0.200,32705.000,0.300,6974.000,0.500,446.000,1.000,204.000,5.000,0
"07/12/06","11:03:37","AMMA06",77770.000,"cc",28321.148,6.00,2832.115,1,6,0.100,37083.000,0.200,33257.000,0.300,6897.000,0.500,384.000,1.000,149.000,5.000,0
"07/12/06","11:03:43","AMMA06",77884.000,"cc",28275.856,6.00,2827.586,1,6,0.100,37021.000,0.200,32961.000,0.300,7176.000,0.500,494.000,1.000,232.000,5.000,0
"07/12/06","11:03:49","AMMA06",78559.000,"cc",28307.270,6.00,2830.727,1,6,0.100,36993.000,0.200,33369.000,0.300,7290.000,0.500,594.000,1.000,313.000,5.000,0
"07/12/06","11:03:55","AMMA06",77982.000,"cc",28368.416,6.00,2836.842,1,6,0.100,37063.000,0.200,33193.000,0.300,7086.000,0.500,442.000,1.000,198.000,5.000,0
"07/12/06","11:04:01","AMMA06",77736.000,"cc",28318.561,6.00,2831.856,1,6,0.100,37106.000,0.200,32971.000,0.300,7052.000,0.500,415.000,1.000,192.000,5.000,0
"07/12/06","11:04:07","AMMA06",79054.000,"cc",28345.746,6.00,2834.575,1,6,0.100,37742.000,0.200,32969.000,0.300,7341.000,0.500,687.000,1.000,315.000,5.000,0
"07/12/06","11:04:13","AMMA06",77135.000,"cc",28286.440,6.00,2828.644,1,6,0.100,36624.000,0.200,33041.000,0.300,6901.000,0.500,404.000,1.000,165.000,5.000,0
"07/12/06","11:04:19","AMMA06",77466.000,"cc",28334.803,6.00,2833.481,1,6,0.100,36972.000,0.200,32928.000,0.300,6992.000,0.500,411.000,1.000,163.000,5.000,0
"07/12/06","11:04:25","AMMA06",77425.000,"cc",28315.967,6.00,2831.597,1,6,0.100,37060.000,0.200,32908.000,0.300,6914.000,0.500,407.000,1.000,136.000,5.000,0
"07/12/06","11:04:31","AMMA06",77224.000,"cc",28287.369,6.00,2828.737,1,6,0.100,37078.000,0.200,32603.000,0.300,6955.000,0.500,431.000,1.000,157.000,5.000,0
"07/12/06","11:04:37","AMMA06",77405.000,"cc",28271.402,6.00,2827.140,1,6,0.100,37242.000,0.200,32538.000,0.300,7051.000,0.500,404.000,1.000,170.000,5.000,0
"07/12/06","11:04:43","AMMA06",76796.000,"cc",28298.328,6.00,2829.833,1,6,0.100,36706.000,0.200,32839.000,0.300,6699.000,0.500,391.000,1.000,161.000,5.000,0
"07/12/06","11:04:49","AMMA06",77038.000,"cc",28348.500,6.00,2834.850,1,6,0.100,37171.000,0.200,32625.000,0.300,6724.000,0.500,382.000,1.000,136.000,5.000,0
"07/12/06","11:04:55","AMMA06",77229.000,"cc",28350.016,6.00,2835.002,1,6,0.100,37322.000,0.200,32582.000,0.300,6791.000,0.500,378.000,1.000,156.000,5.000,0
"07/12/06","11:05:01","AMMA06",76935.000,"cc",28326.207,6.00,2832.621,1,6,0.100,36916.000,0.200,32455.000,0.300,6944.000,0.500,443.000,1.000,177.000,5.000,0
"07/12/06","11:05:07","AMMA06",76725.000,"cc",28313.199,6.00,2831.320,1,6,0.100,37079.000,0.200,32376.000,0.300,6767.000,0.500,371.000,1.000,132.000,5.000,0
"07/12/06","11:05:13","AMMA06",76797.000,"cc",28315.320,6.00,2831.532,1,6,0.100,37089.000,0.200,32518.000,0.300,6650.000,0.500,411.000,1.000,129.000,5.000,0
"07/12/06","11:05:19","AMMA06",76224.000,"cc",28365.748,6.00,2836.575,1,6,0.100,37044.000,0.200,32132.000,0.300,6590.000,0.500,353.000,1.000,105.000,5.000,0
"07/12/06","11:05:25","AMMA06",77137.000,"cc",28292.781,6.00,2829.278,1,6,0.100,37218.000,0.200,32382.000,0.300,6836.000,0.500,488.000,1.000,213.000,5.000,0
"07/12/06","11:05:31","AMMA06",79339.000,"cc",28290.258,6.00,2829.026,1,6,0.100,38284.000,0.200,32507.000,0.300,7261.000,0.500,832.000,1.000,455.000,5.000,0
"07/12/06","11:05:37","AMMA06",78775.000,"cc",28383.902,6.00,2838.390,1,6,0.100,38216.000,0.200,32378.000,0.300,7128.000,0.500,739.000,1.000,314.000,5.000,0
"07/12/06","11:05:43","AMMA06",78309.000,"cc",28330.430,6.00,2833.043,1,6,0.100,38187.000,0.200,32345.000,0.300,6935.000,0.500,588.000,1.000,254.000,5.000,0
"07/12/06","11:05:49","AMMA06",76985.000,"cc",28282.252,6.00,2828.225,1,6,0.100,38105.000,0.200,31842.000,0.300,6434.000,0.500,438.000,1.000,166.000,5.000,0
"07/12/06","11:05:55","AMMA06",76776.000,"cc",28338.139,6.00,2833.814,1,6,0.100,37796.000,0.200,31752.000,0.300,6599.000,0.500,442.000,1.000,187.000,5.000,0
"07/12/06","11:06:01","AMMA06",76629.000,"cc",28314.949,6.00,2831.495,1,6,0.100,37808.000,0.200,31697.000,0.300,6578.000,0.500,406.000,1.000,140.000,5.000,0
"07/12/06","11:06:07","AMMA06",76270.000,"cc",28292.527,6.00,2829.253,1,6,0.100,37816.000,0.200,31670.000,0.300,6337.000,0.500,332.000,1.000,115.000,5.000,0
"07/12/06","11:06:13","AMMA06",76817.000,"cc",28322.779,6.00,2832.278,1,6,0.100,37967.000,0.200,31896.000,0.300,6486.000,0.500,347.000,1.000,121.000,5.000,0
"07/12/06","11:06:19","AMMA06",76356.000,"cc",28304.438,6.00,2830.444,1,6,0.100,37446.000,0.200,31941.000,0.300,6548.000,0.500,311.000,1.000,110.000,5.000,0
"07/12/06","11:06:25","AMMA06",76462.000,"cc",28379.723,6.00,2837.972,1,6,0.100,37628.000,0.200,31800.000,0.300,6600.000,0.500,332.000,1.000,102.000,5.000,0
"07/12/06","11:06:31","AMMA06",76573.000,"cc",28351.098,6.00,2835.110,1,6,0.100,37796.000,0.200,31844.000,0.300,6433.000,0.500,371.000,1.000,129.000,5.000,0
"07/12/06","11:06:37","AMMA06",77526.000,"cc",28290.826,6.00,2829.083,1,6,0.100,37975.000,0.200,32027.000,0.300,6782.000,0.500,511.000,1.000,231.000,5.000,0
"07/12/06","11:06:43","AMMA06",76893.000,"cc",28310.406,6.00,2831.041,1,6,0.100,37702.000,0.200,32054.000,0.300,6526.000,0.500,443.000,1.000,168.000,5.000,0
"07/12/06","11:06:49","AMMA06",77951.000,"cc",28342.008,6.00,2834.201,1,6,0.100,38305.000,0.200,32090.000,0.300,6784.000,0.500,545.000,1.000,227.000,5.000,0
"07/12/06","11:06:55","AMMA06",76711.000,"cc",28329.744,6.00,2832.975,1,6,0.100,37683.000,0.200,31978.000,0.300,6475.000,0.500,394.000,1.000,181.000,5.000,0
"07/12/06","11:07:01","AMMA06",76097.000,"cc",28266.393,6.00,2826.639,1,6,0.100,37467.000,0.200,31740.000,0.300,6456.000,0.500,321.000,1.000,113.000,5.000,0
"07/12/06","11:07:07","AMMA06",76584.000,"cc",28294.393,6.00,2829.440,1,6,0.100,37334.000,0.200,32249.000,0.300,6517.000,0.500,350.000,1.000,134.000,5.000,0
"07/12/06","11:07:13","AMMA06",76261.000,"cc",28327.455,6.00,2832.746,1,6,0.100,37439.000,0.200,31775.000,0.300,6583.000,0.500,334.000,1.000,130.000,5.000,0
"07/12/06","11:07:19","AMMA06",76020.000,"cc",28294.951,6.00,2829.495,1,6,0.100,37151.000,0.200,31871.000,0.300,6530.000,0.500,342.000,1.000,126.000,5.000,0
"07/12/06","11:07:25","AMMA06",76435.000,"cc",28366.412,6.00,2836.641,1,6,0.100,37179.000,0.200,32122.000,0.300,6654.000,0.500,360.000,1.000,120.000,5.000,0
"07/12/06","11:07:31","AMMA06",76308.000,"cc",28300.186,6.00,2830.019,1,6,0.100,36921.000,0.200,32235.000,0.300,6670.000,0.500,369.000,1.000,113.000,5.000,0
"07/12/06","11:07:37","AMMA06",76484.000,"cc",28291.160,6.00,2829.116,1,6,0.100,37034.000,0.200,32244.000,0.300,6674.000,0.500,381.000,1.000,151.000,5.000,0
"07/12/06","11:07:43","AMMA06",76412.000,"cc",28314.412,6.00,2831.441,1,6,0.100,36650.000,0.200,32339.000,0.300,6806.000,0.500,435.000,1.000,182.000,5.000,0
"07/12/06","11:07:49","AMMA06",76626.000,"cc",28265.748,6.00,2826.575,1,6,0.100,36431.000,0.200,32786.000,0.300,6874.000,0.500,398.000,1.000,137.000,5.000,0
"07/12/06","11:07:55","AMMA06",77055.000,"cc",28329.789,6.00,2832.979,1,6,0.100,36903.000,0.200,32617.000,0.300,6928.000,0.500,436.000,1.000,171.000,5.000,0
"07/12/06","11:08:01","AMMA06",77171.000,"cc",28296.063,6.00,2829.606,1,6,0.100,36694.000,0.200,33010.000,0.300,6863.000,0.500,432.000,1.000,172.000,5.000,0
"07/12/06","11:08:07","AMMA06",79658.000,"cc",28332.156,6.00,2833.216,1,6,0.100,37862.000,0.200,33371.000,0.300,7342.000,0.500,722.000,1.000,361.000,5.000,0
"07/12/06","11:08:13","AMMA06",78725.000,"cc",28350.711,6.00,2835.071,1,6,0.100,37414.000,0.200,33095.000,0.300,7197.000,0.500,727.000,1.000,291.000,5.000,1.000
"07/12/06","11:08:19","AMMA06",77712.000,"cc",28299.617,6.00,2829.962,1,6,0.100,37014.000,0.200,32901.000,0.300,7052.000,0.500,529.000,1.000,216.000,5.000,0
"07/12/06","11:08:25","AMMA06",77949.000,"cc",28339.857,6.00,2833.986,1,6,0.100,37155.000,0.200,32868.000,0.300,7085.000,0.500,585.000,1.000,256.000,5.000,0
"07/12/06","11:08:31","AMMA06",77489.000,"cc",28333.523,6.00,2833.353,1,6,0.100,37362.000,0.200,32544.000,0.300,6861.000,0.500,519.000,1.000,203.000,5.000,0
"07/12/06","11:08:37","AMMA06",77522.000,"cc",28327.518,6.00,2832.752,1,6,0.100,37174.000,0.200,32672.000,0.300,6985.000,0.500,463.000,1.000,228.000,5.000,0
"07/12/06","11:08:43","AMMA06",77666.000,"cc",28311.404,6.00,2831.141,1,6,0.100,36955.000,0.200,32885.000,0.300,6977.000,0.500,594.000,1.000,255.000,5.000,0
"07/12/06","11:08:49","AMMA06",78167.000,"cc",28288.350,6.00,2828.835,1,6,0.100,37216.000,0.200,32791.000,0.300,7178.000,0.500,677.000,1.000,305.000,5.000,0
"07/12/06","11:08:55","AMMA06",78404.000,"cc",28335.320,6.00,2833.532,1,6,0.100,37420.000,0.200,32733.000,0.300,7297.000,0.500,674.000,1.000,280.000,5.000,0
"07/12/06","11:09:01","AMMA06",76836.000,"cc",28326.570,6.00,2832.657,1,6,0.100,36968.000,0.200,32361.000,0.300,6870.000,0.500,452.000,1.000,185.000,5.000,0
"07/12/06","11:09:07","AMMA06",77693.000,"cc",28308.246,6.00,2830.825,1,6,0.100,37203.000,0.200,32751.000,0.300,6949.000,0.500,561.000,1.000,229.000,5.000,0
"07/12/06","11:09:13","AMMA06",76542.000,"cc",28318.287,6.00,2831.829,1,6,0.100,36754.000,0.200,32214.000,0.300,6899.000,0.500,486.000,1.000,189.000,5.000,0
"07/12/06","11:09:19","AMMA06",78565.000,"cc",28345.289,6.00,2834.529,1,6,0.100,37669.000,0.200,32755.000,0.300,7137.000,0.500,663.000,1.000,341.000,5.000,0
"07/12/06","11:09:25","AMMA06",76681.000,"cc",28313.973,6.00,2831.398,1,6,0.100,36681.000,0.200,32563.000,0.300,6847.000,0.500,435.000,1.000,155.000,5.000,0
"07/12/06","11:09:31","AMMA06",76752.000,"cc",28311.631,6.00,2831.163,1,6,0.100,36926.000,0.200,32391.000,0.300,6799.000,0.500,452.000,1.000,184.000,5.000,0
"07/12/06","11:09:37","AMMA06",77160.000,"cc",28335.547,6.00,2833.555,1,6,0.100,36819.000,0.200,32561.000,0.300,7013.000,0.500,546.000,1.000,221.000,5.000,0
"07/12/06","11:09:43","AMMA06",77873.000,"cc",28296.240,6.00,2829.624,1,6,0.100,37036.000,0.200,32594.000,0.300,7241.000,0.500,662.000,1.000,340.000,5.000,0
"07/12/06","11:09:49","AMMA06",76866.000,"cc",28335.482,6.00,2833.548,1,6,0.100,36535.000,0.200,33021.000,0.300,6724.000,0.500,440.000,1.000,146.000,5.000,0
"07/12/06","11:09:55","AMMA06",78044.000,"cc",28360.504,6.00,2836.051,1,6,0.100,37213.000,0.200,32750.000,0.300,7189.000,0.500,617.000,1.000,275.000,5.000,0
"07/12/06","11:10:01","AMMA06",82553.000,"cc",28253.002,6.00,2825.300,1,6,0.100,38711.000,0.200,33760.000,0.300,8247.000,0.500,1252.000,1.000,583.000,5.000,0
"07/12/06","11:10:07","AMMA06",80592.000,"cc",28300.955,6.00,2830.096,1,6,0.100,38075.000,0.200,33472.000,0.300,7665.000,0.500,935.000,1.000,445.000,5.000,0
"07/12/06","11:10:13","AMMA06",80682.000,"cc",28319.193,6.00,2831.919,1,6,0.100,38043.000,0.200,33365.000,0.300,7730.000,0.500,1026.000,1.000,518.000,5.000,0
"07/12/06","11:10:19","AMMA06",80414.000,"cc",28300.176,6.00,2830.018,1,6,0.100,38152.000,0.200,33219.000,0.300,7704.000,0.500,899.000,1.000,440.000,5.000,0
"07/12/06","11:10:25","AMMA06",78651.000,"cc",28294.529,6.00,2829.453,1,6,0.100,37713.000,0.200,32965.000,0.300,7074.000,0.500,628.000,1.000,271.000,5.000,0
"07/12/06","11:10:31","AMMA06",77398.000,"cc",28310.357,6.00,2831.036,1,6,0.100,36785.000,0.200,32751.000,0.300,7059.000,0.500,554.000,1.000,249.000,5.000,0
"07/12/06","11:10:37","AMMA06",80053.000,"cc",28309.857,6.00,2830.986,1,6,0.100,38173.000,0.200,32760.000,0.300,7664.000,0.500,952.000,1.000,504.000,5.000,0
"07/12/06","11:10:43","AMMA06",77010.000,"cc",28293.135,6.00,2829.314,1,6,0.100,36932.000,0.200,32401.000,0.300,6987.000,0.500,488.000,1.000,202.000,5.000,0
"07/12/06","11:10:49","AMMA06",77021.000,"cc",28310.566,6.00,2831.057,1,6,0.100,36954.000,0.200,32434.000,0.300,6976.000,0.500,476.000,1.000,181.000,5.000,0
"07/12/06","11:10:55","AMMA06",77718.000,"cc",28333.990,6.00,2833.399,1,6,0.100,37385.000,0.200,32538.000,0.300,6991.000,0.500,577.000,1.000,227.000,5.000,0
"07/12/06","11:11:01","AMMA06",81883.000,"cc",28302.451,6.00,2830.245,1,6,0.100,38611.000,0.200,33448.000,0.300,8143.000,0.500,1138.000,1.000,543.000,5.000,0
"07/12/06","11:11:07","AMMA06",78699.000,"cc",28296.225,6.00,2829.623,1,6,0.100,37697.000,0.200,32775.000,0.300,7258.000,0.500,666.000,1.000,303.000,5.000,0
"07/12/06","11:11:13","AMMA06",78123.000,"cc",28347.793,6.00,2834.780,1,6,0.100,37947.000,0.200,32396.000,0.300,6930.000,0.500,583.000,1.000,267.000,5.000,0
"07/12/06","11:11:19","AMMA06",78356.000,"cc",28354.957,6.00,2835.496,1,6,0.100,38000.000,0.200,32302.000,0.300,7115.000,0.500,659.000,1.000,280.000,5.000,0
"07/12/06","11:11:25","AMMA06",77701.000,"cc",28303.553,6.00,2830.356,1,6,0.100,37873.000,0.200,32181.000,0.300,6780.000,0.500,605.000,1.000,262.000,5.000,0
"07/12/06","11:11:31","AMMA06",77451.000,"cc",28301.645,6.00,2830.165,1,6,0.100,37648.000,0.200,31943.000,0.300,7024.000,0.500,591.000,1.000,245.000,5.000,0
"07/12/06","11:11:37","AMMA06",78230.000,"cc",28315.785,6.00,2831.579,1,6,0.100,37905.000,0.200,32468.000,0.300,7012.000,0.500,580.000,1.000,265.000,5.000,0
"07/12/06","11:11:43","AMMA06",79059.000,"cc",28367.934,6.00,2836.794,1,6,0.100,38064.000,0.200,32489.000,0.300,7323.000,0.500,848.000,1.000,335.000,5.000,0
"07/12/06","11:11:49","AMMA06",76904.000,"cc",28265.098,6.00,2826.510,1,6,0.100,37390.000,0.200,32207.000,0.300,6677.000,0.500,457.000,1.000,173.000,5.000,0
"07/12/06","11:11:55","AMMA06",78637.000,"cc",28321.250,6.00,2832.125,1,6,0.100,38148.000,0.200,32598.000,0.300,6907.000,0.500,663.000,1.000,321.000,5.000,0
"07/12/06","11:12:01","AMMA06",79339.000,"cc",28305.772,6.00,2830.577,1,6,0.100,38615.000,0.200,32253.000,0.300,7268.000,0.500,835.000,1.000,368.000,5.000,0
"07/12/06","11:12:07","AMMA06",76906.000,"cc",28326.815,6.00,2832.682,1,6,0.100,37936.000,0.200,31883.000,0.300,6500.000,0.500,438.000,1.000,149.000,5.000,0
"07/12/06","11:12:13","AMMA06",78779.000,"cc",28313.090,6.00,2831.309,1,6,0.100,38086.000,0.200,32550.000,0.300,7070.000,0.500,755.000,1.000,318.000,5.000,0
"07/12/06","11:12:19","AMMA06",83287.000,"cc",28345.027,6.00,2834.503,1,6,0.100,39600.000,0.200,33223.000,0.300,8299.000,0.500,1458.000,1.000,707.000,5.000,0
"07/12/06","11:12:25","AMMA06",81441.000,"cc",28332.647,6.00,2833.265,1,6,0.100,39105.000,0.200,32831.000,0.300,7848.000,0.500,1116.000,1.000,541.000,5.000,0
"07/12/06","11:12:31","AMMA06",79386.000,"cc",28332.039,6.00,2833.204,1,6,0.100,37856.000,0.200,32775.000,0.300,7504.000,0.500,848.000,1.000,403.000,5.000,0
"07/12/06","11:12:37","AMMA06",77669.000,"cc",28282.664,6.00,2828.267,1,6,0.100,37229.000,0.200,32559.000,0.300,7058.000,0.500,551.000,1.000,272.000,5.000,0
"07/12/06","11:12:43","AMMA06",77565.000,"cc",28247.225,6.00,2824.723,1,6,0.100,37260.000,0.200,32489.000,0.300,7041.000,0.500,536.000,1.000,239.000,5.000,0
"07/12/06","11:12:49","AMMA06",77464.000,"cc",28348.031,6.00,2834.803,1,6,0.100,36945.000,0.200,32675.000,0.300,7055.000,0.500,556.000,1.000,233.000,5.000,0
"07/12/06","11:12:55","AMMA06",77335.000,"cc",28334.303,6.00,2833.430,1,6,0.100,36911.000,0.200,32647.000,0.300,7025.000,0.500,529.000,1.000,223.000,5.000,0
"07/12/06","11:13:01","AMMA06",76716.000,"cc",28339.227,6.00,2833.923,1,6,0.100,36740.000,0.200,32404.000,0.300,6936.000,0.500,448.000,1.000,187.000,5.000,1.000
"07/12/06","11:13:07","AMMA06",81088.000,"cc",28347.357,6.00,2834.736,1,6,0.100,37769.000,0.200,33464.000,0.300,8020.000,0.500,1188.000,1.000,647.000,5.000,0
"07/12/06","11:13:13","AMMA06",77546.000,"cc",28324.010,6.00,2832.401,1,6,0.100,36353.000,0.200,33188.000,0.300,7226.000,0.500,543.000,1.000,236.000,5.000,0
"07/12/06","11:13:19","AMMA06",76862.000,"cc",28271.426,6.00,2827.143,1,6,0.100,36374.000,0.200,32676.000,0.300,7151.000,0.500,479.000,1.000,182.000,5.000,0
"07/12/06","11:13:25","AMMA06",77491.000,"cc",28330.731,6.00,2833.073,1,6,0.100,36667.000,0.200,32650.000,0.300,7242.000,0.500,617.000,1.000,314.000,5.000,1.000
"07/12/06","11:13:31","AMMA06",76946.000,"cc",28303.924,6.00,2830.393,1,6,0.100,36163.000,0.200,32885.000,0.300,7188.000,0.500,499.000,1.000,211.000,5.000,0
"07/12/06","11:13:37","AMMA06",77240.000,"cc",28300.576,6.00,2830.058,1,6,0.100,36743.000,0.200,32680.000,0.300,7141.000,0.500,501.000,1.000,175.000,5.000,0
"07/12/06","11:13:43","AMMA06",76950.000,"cc",28296.068,6.00,2829.607,1,6,0.100,36459.000,0.200,32993.000,0.300,6935.000,0.500,412.000,1.000,151.000,5.000,0
"07/12/06","11:13:49","AMMA06",76757.000,"cc",28354.125,6.00,2835.413,1,6,0.100,36437.000,0.200,32691.000,0.300,6926.000,0.500,501.000,1.000,202.000,5.000,0
"07/12/06","11:13:55","AMMA06",76539.000,"cc",28335.018,6.00,2833.502,1,6,0.100,36665.000,0.200,32523.000,0.300,6751.000,0.500,448.000,1.000,152.000,5.000,0
"07/12/06","11:14:01","AMMA06",80483.000,"cc",28333.727,6.00,2833.373,1,6,0.100,37796.000,0.200,33186.000,0.300,7870.000,0.500,1081.000,1.000,550.000,5.000,0
"07/12/06","11:14:07","AMMA06",78592.000,"cc",28328.037,6.00,2832.804,1,6,0.100,37315.000,0.200,32908.000,0.300,7327.000,0.500,707.000,1.000,335.000,5.000,0
"07/12/06","11:14:13","AMMA06",78189.000,"cc",28263.523,6.00,2826.353,1,6,0.100,37436.000,0.200,32551.000,0.300,7273.000,0.500,599.000,1.000,330.000,5.000,0